Terug naar catalogus

DELTA 1 DEB

ActiefSSO
NORAD 12195·DEBRIS·🇺🇸 United States

Gelanceerd Mar 5, 1978 vanaf Vandenberg Space Force Base

Loading…

Volgende Passages (komende 24 uur)

TLE

VersSource: Space-Track

Epoch: Sep 13, 2026, 19:41 UTC

1 12195U 78026AL  26256.82061931 -.00000075  00000-0 -24622-4 0  9996
2 12195  98.9513 200.1800 0060677 157.0113 261.6878 13.94059729315725

Volg DELTA 1 DEB in realtime met AllMySat

Download on the App Store